Location: Nakusp
(50.2330°N, 117.8000°W)
Time: 06:56:50
(UTC-07:00)

Cosmos 1939 Rocket - Visible Passes

Search period start: 30 June 2016 00:00
Search period end: 10 July 2016 00:00
Orbit: 532 x 589 km, 97.6° (Epoch: 29 June)

Date Brightness Start Highest point End Pass type
(mag) Time Alt. Az. Time Alt. Az. Time Alt. Az.
30 Jun 4.9 21:59:19 10° SSW 22:02:33 24° W 22:05:47 10° NW visible
01 Jul 4.8 21:58:20 10° SSW 22:01:35 25° W 22:04:50 10° NW visible
02 Jul 4.8 21:57:21 10° SSW 22:00:36 25° W 22:03:52 10° NW visible
03 Jul 4.8 21:56:20 10° SSW 21:59:37 26° W 22:02:55 10° NW visible
04 Jul 4.8 21:55:21 10° SSW 21:58:39 26° W 22:01:58 10° NW visible
05 Jul 4.7 21:54:20 10° SSW 21:57:39 27° W 22:01:00 10° NW visible
06 Jul 4.7 21:53:20 10° SSW 21:56:41 27° W 22:00:02 10° NW visible
07 Jul 4.6 21:52:20 10° SSW 21:55:42 28° W 21:59:05 10° NW visible
08 Jul 4.6 21:51:21 10° SSW 21:54:43 29° W 21:58:07 10° NW visible
09 Jul 4.6 21:50:20 10° SSW 21:53:44 29° W 21:57:10 10° NNW visible
